Wind_Speed
4 3 2 2 3 4 4 5 4 4 3 2 3 3 4 4 5 5 5 6 6 6 6 7 7 7 8 9 10 11 11 11 11 10 9 8 6 6 5 5 4 3 3 3 3 3 2 1 1
6 6 5 4 3 4 7 6 6 6 5 5 4 4 5 5 5 5 5 5 5 6 6 7 7 7 9 10 11 12 12 12 12 12 11 10 9 9 8 7 7 6 5 4 3 3 2 2 1
8 8 7 7 7 8 10 8 8 8 7 8 7 7 7 7 6 6 6 6 6 6 6 6 7 8 9 10 11 12 13 13 13 13 13 13 12 11 11 10 10 9 8 7 6 5 5 4 4
11 10 9 9 11 12 12 11 10 9 9 10 10 9 9 9 9 8 7 7 6 6 6 6 7 8 9 10 11 12 13 14 14 15 15 15 15 14 14 13 13 12 12 11 10 9 8 8 7
13 12 12 11 14 15 14 14 13 13 12 12 12 12 11 11 11 10 9 8 7 7 7 8 9 9 10 11 12 13 14 15 16 16 16 17 17 17 17 17 16 16 15 14 14 13 12 11 10
15 14 14 14 18 18 18 16 15 15 14 14 14 14 13 12 12 11 11 10 9 8 9 9 10 11 12 13 14 15 16 17 18 18 19 19 20 20 20 20 20 20 19 18 18 16 15 14 14
18 17 18 18 20 22 22 19 18 17 15 14 14 15 15 14 13 12 12 10 10 10 10 11 13 14 15 16 17 18 19 20 20 21 22 22 23 23 23 23 23 23 23 22 21 20 19 18 18
19 19 20 21 22 24 24 22 21 18 16 15 15 15 16 14 14 13 13 12 12 13 14 14 16 16 17 18 20 21 22 23 23 24 24 25 25 26 26 26 26 26 26 25 24 23 22 22 21
21 21 21 23 24 25 26 25 23 20 17 16 16 16 16 15 15 14 14 14 14 15 17 17 19 19 20 22 23 23 24 24 25 26 27 27 28 29 30 30 29 29 29 28 27 26 25 24 24
23 22 23 24 24 25 27 26 25 22 19 18 17 17 17 17 17 16 16 16 17 18 20 20 21 22 24 24 25 25 25 26 27 28 29 30 30 31 32 33 33 32 31 30 29 29 27 26 26
25 23 24 23 25 25 27 28 26 24 23 21 19 19 19 19 20 20 19 19 20 21 23 24 25 25 26 27 27 27 28 29 29 30 31 31 31 32 34 34 34 35 34 33 32 31 29 28 27
26 25 24 24 25 25 27 28 28 28 26 25 23 22 21 22 22 22 23 23 24 24 26 27 28 29 29 30 28 28 29 30 31 31 32 32 32 33 35 35 36 37 36 36 35 33 31 30 29
27 26 25 25 25 26 27 28 29 29 29 29 27 26 25 25 24 25 26 27 27 27 28 29 31 31 31 32 30 31 31 31 31 31 33 33 34 35 36 37 38 38 38 38 36 35 33 32 31
25 24 24 24 24 25 26 28 29 30 30 30 30 30 29 28 28 28 29 30 30 30 31 32 33 34 34 33 33 33 33 33 33 33 34 34 34 35 36 37 38 39 39 40 38 37 35 34 33
23 22 22 23 23 24 25 27 29 29 30 31 31 31 31 30 30 31 31 31 32 33 33 33 35 37 36 35 36 36 36 36 36 36 35 33 33 34 34 35 37 38 40 41 40 38 36 35 34
18 17 18 21 21 22 21 24 26 26 28 29 29 30 30 31 31 31 31 32 33 34 35 36 38 39 38 38 39 39 40 38 37 36 34 32 32 31 32 34 35 37 38 39 39 38 37 35 34
12 11 13 18 19 20 20 23 24 24 25 26 26 27 28 29 30 30 31 32 33 35 37 38 40 40 41 41 42 43 41 40 38 35 33 32 32 31 31 31 32 35 38 39 39 38 37 35 34
9 9 11 15 17 18 19 22 23 23 23 24 23 23 24 26 27 29 30 32 34 36 38 40 42 42 43 43 44 43 41 40 38 34 32 31 31 31 30 29 30 33 36 36 37 38 36 34 33
9 8 10 14 16 17 19 21 22 23 23 23 23 23 23 25 27 29 31 33 35 37 39 41 42 43 43 43 42 41 41 40 37 34 34 33 31 30 28 29 29 30 31 34 36 36 34 34 33
7 7 9 12 14 15 17 19 20 21 22 23 23 23 25 26 28 31 33 35 36 38 40 40 41 42 43 43 42 41 41 40 37 37 36 34 32 30 29 28 28 28 28 31 34 35 35 34 34
6 6 9 11 12 13 13 15 16 17 18 20 21 22 23 25 27 30 31 33 34 36 37 37 38 39 40 40 39 40 40 39 38 37 36 34 34 32 30 29 28 27 29 30 33 34 35 34 33
6 8 8 9 8 10 8 10 13 14 16 17 19 21 23 25 27 28 30 32 33 35 36 37 37 38 38 39 40 41 41 41 40 39 39 38 37 36 33 32 31 30 29 31 33 34 34 33 33
7 6 6 7 7 8 9 8 16 15 16 18 19 21 23 25 27 29 31 33 35 36 37 37 38 39 40 40 41 42 43 43 43 43 43 42 41 39 38 37 35 34 33 32 32 33 34 34 35
5 5 6 7 8 9 12 10 16 16 18 20 21 23 25 27 30 32 33 34 35 37 38 40 40 41 42 43 44 45 46 46 47 47 47 46 45 44 43 43 41 40 39 37 36 35 36 37 37
5 6 8 9 9 12 15 14 16 17 20 21 23 25 27 29 31 32 33 35 37 38 40 41 42 43 44 45 46 47 48 49 49 50 51 51 51 50 49 48 48 47 45 44 42 41 40 40 40
6 7 7 8 9 12 16 16 17 18 20 21 24 26 27 29 31 33 34 36 38 40 41 42 43 43 44 45 46 47 47 48 49 49 50 52 53 53 53 53 53 53 53 51 49 48 47 46 45
6 6 7 8 10 11 14 16 16 18 19 21 24 25 27 29 32 34 36 38 40 41 42 42 43 43 44 44 45 45 45 46 46 47 48 49 50 52 54 55 57 58 59 59 58 56 54 53 51
5 6 7 8 9 10 14 18 18 19 21 23 25 27 29 32 34 36 38 40 41 42 43 43 44 43 43 43 44 44 45 46 47 48 49 50 51 51 52 53 55 58 61 62 63 63 61 60 58
6 7 8 10 10 11 12 18 19 21 23 25 28 30 32 35 37 39 40 41 43 44 44 44 43 43 43 43 44 45 46 47 48 49 50 50 51 52 53 54 55 57 59 62 64 66 66 66 65
8 9 10 11 13 14 15 19 20 22 25 27 30 32 35 37 39 41 42 44 44 44 44 43 43 44 45 45 46 46 47 48 49 49 49 50 51 52 53 54 55 55 57 59 61 64 68 70 70
Wind_Direction
308 306 316 325 341 352 342 342 337 323 316 311 298 284 281 282 283 286 284 288 292 294 291 293 297 304 309 310 308 306 306 305 305 303 302 300 301 303 308 313 318 327 338 353 5 11 18 36 72
291 286 284 284 301 321 300 315 319 319 323 322 313 304 296 293 291 288 293 296 301 306 306 308 308 310 313 312 310 307 305 304 303 302 299 298 299 299 300 300 299 298 296 299 306 311 313 313 289
280 275 274 276 274 267 275 288 300 305 310 312 311 307 304 297 291 291 295 295 305 312 315 318 321 319 317 314 311 308 306 304 302 301 299 298 297 297 296 295 293 289 283 278 277 278 279 278 276
277 274 273 270 270 268 271 277 286 294 301 305 305 303 301 298 297 296 293 292 300 306 313 319 322 319 315 311 308 306 304 303 302 302 301 298 296 294 293 291 289 286 280 273 267 266 267 267 265
275 273 272 273 269 268 269 272 279 286 294 300 302 299 295 295 292 291 289 290 297 300 307 312 314 311 308 305 302 301 301 301 300 300 300 298 295 294 292 290 287 285 280 273 267 262 261 261 261
271 271 265 262 266 270 270 271 276 280 286 293 295 293 292 291 290 286 285 287 292 297 302 306 307 306 303 301 300 300 299 301 300 298 297 296 294 292 291 290 287 284 280 274 269 263 260 258 258
266 265 261 260 263 270 273 275 275 277 283 286 288 288 287 285 284 281 282 284 291 298 304 306 303 299 297 296 296 297 297 298 299 297 296 294 292 289 288 287 285 283 279 274 269 264 260 258 257
266 264 260 258 259 264 271 275 276 278 280 281 282 283 282 278 277 275 277 284 291 295 301 302 300 296 294 294 295 296 296 296 297 295 293 292 288 285 284 283 281 279 277 274 269 265 261 258 257
267 263 259 256 256 259 266 270 274 278 278 278 278 277 275 274 274 272 276 282 288 292 297 299 298 295 294 296 294 295 295 294 295 293 289 288 286 283 280 278 277 275 273 271 268 264 261 259 257
268 264 259 258 257 257 260 264 268 272 275 275 274 276 276 274 276 277 280 286 288 291 295 297 296 295 295 295 293 295 295 293 292 292 289 288 285 283 280 277 275 273 270 268 266 263 260 258 256
269 265 263 261 258 255 255 259 263 265 267 270 274 278 280 283 287 286 284 289 291 293 296 296 294 294 294 294 293 294 295 294 291 291 290 288 285 282 279 276 273 272 268 266 263 261 259 257 254
269 265 262 259 258 255 253 255 259 262 265 269 272 276 279 283 285 286 287 290 291 292 293 293 292 292 292 293 294 295 297 296 291 288 288 286 284 282 278 275 272 270 267 263 261 259 256 254 253
268 265 263 260 258 257 255 255 257 260 265 268 270 274 277 278 278 281 285 289 290 289 291 291 290 290 290 291 292 296 298 295 292 291 289 286 284 282 279 275 271 269 266 262 258 257 255 253 252
267 266 264 262 260 259 258 259 260 261 264 266 269 272 274 275 275 276 279 282 284 285 287 287 288 288 288 290 291 293 294 294 293 293 291 287 285 285 280 275 270 266 264 261 256 256 254 253 252
265 265 265 263 262 261 261 262 263 265 266 268 269 271 272 273 272 272 275 276 279 282 284 285 286 286 287 289 290 291 293 295 293 293 291 288 287 286 281 275 271 265 261 259 256 254 255 252 252
266 267 266 265 265 264 263 263 266 267 268 270 272 272 272 271 271 272 272 273 276 279 281 282 284 287 287 288 289 290 292 294 294 293 288 287 286 286 282 277 272 266 261 259 257 255 254 253 250
267 257 257 268 267 267 264 264 270 271 272 274 274 274 272 270 270 271 272 273 275 277 279 281 284 285 287 287 288 289 291 292 293 293 289 288 286 283 283 277 271 267 261 257 254 252 252 250 248
246 248 257 264 269 269 269 271 274 276 278 279 279 277 273 270 270 271 273 275 276 279 281 282 284 285 286 287 288 289 290 291 291 291 291 288 287 285 283 279 275 269 259 252 249 250 249 247 247
256 252 259 267 272 272 272 274 276 278 280 279 279 278 276 274 275 275 276 278 280 282 284 285 285 286 286 286 288 288 289 290 288 288 289 288 286 285 282 279 276 269 255 246 246 247 245 244 243
272 270 275 280 280 278 278 278 279 279 279 280 280 279 279 279 279 280 281 283 285 286 287 287 287 287 286 286 287 288 288 287 287 285 285 284 285 282 281 278 274 266 256 250 246 243 242 242 241
282 266 274 287 293 291 290 290 285 284 284 283 284 285 285 285 286 286 287 287 288 289 290 289 290 289 289 289 288 288 288 286 284 283 281 281 282 282 279 273 270 266 258 251 245 240 239 239 240
270 277 284 296 308 305 304 296 297 298 297 295 293 293 293 293 293 293 293 293 293 293 295 294 293 292 291 290 289 289 287 285 283 282 280 279 279 279 276 271 265 262 260 255 247 239 237 236 239
258 277 290 298 304 304 308 298 294 303 303 300 298 298 298 298 298 297 297 296 296 296 296 296 295 294 292 291 289 287 286 285 283 281 279 277 276 274 273 268 263 260 257 254 250 241 236 237 239
275 287 303 312 314 300 299 298 292 303 304 301 298 297 298 299 300 299 299 298 298 297 297 296 295 293 292 290 289 287 285 283 281 280 277 275 273 270 268 265 260 257 255 252 250 247 243 241 239
285 298 306 305 302 289 296 298 296 301 302 302 302 301 301 301 303 302 300 299 299 298 297 296 294 293 291 290 288 286 284 282 280 278 276 274 271 268 265 262 259 255 252 250 248 247 245 243 240
289 291 284 283 288 293 303 306 309 306 307 306 307 306 304 305 306 306 304 303 301 300 299 298 296 294 292 290 288 286 284 282 280 277 275 272 270 268 264 260 257 254 251 248 246 245 244 242 241
295 294 299 305 311 313 309 314 314 315 315 313 313 313 313 313 312 310 308 307 305 304 302 301 299 297 295 293 291 289 287 285 283 280 277 275 272 268 265 261 257 253 251 248 245 243 242 241 241
307 312 317 319 314 312 313 317 321 322 321 321 320 320 320 318 316 314 312 311 310 308 306 305 303 301 300 297 295 293 291 288 285 282 279 277 274 270 266 263 259 255 251 248 245 243 241 240 238
324 324 327 326 325 324 317 313 326 326 326 326 325 324 323 321 319 318 316 315 314 312 310 309 307 305 303 301 299 296 293 290 287 284 281 277 274 272 269 265 261 257 253 249 246 243 241 240 239
333 335 334 332 329 329 327 322 331 329 328 328 327 327 325 324 322 320 319 318 317 315 313 312 311 309 307 305 303 300 298 295 292 288 283 279 276 273 269 265 262 258 254 251 248 245 242 240 239
Height
5931 5931 5931 5932 5933 5933 5933 5932 5931 5930 5929 5928 5927 5927 5926 5926 5926 5927 5924 5922 5922 5922 5921 5921 5921 5920 5920 5920 5919 5919 5918 5917 5917 5916 5915 5914 5913 5912 5911 5910 5909 5908 5908 5907 5906 5906 5905 5905 5904
5931 5931 5932 5932 5933 5935 5933 5931 5930 5929 5928 5927 5927 5926 5925 5924 5924 5923 5922 5921 5921 5920 5920 5920 5920 5920 5919 5919 5918 5918 5917 5916 5916 5915 5914 5913 5912 5911 5910 5909 5909 5908 5907 5907 5906 5906 5905 5905 5904
5930 5930 5932 5932 5932 5932 5931 5930 5930 5929 5928 5927 5926 5925 5925 5924 5923 5922 5921 5920 5920 5919 5918 5918 5918 5918 5918 5917 5917 5916 5916 5915 5914 5913 5912 5912 5911 5910 5909 5908 5908 5907 5906 5906 5905 5905 5904 5904 5904
5929 5930 5931 5932 5931 5930 5930 5929 5929 5928 5927 5926 5925 5924 5923 5922 5921 5920 5919 5919 5918 5917 5917 5916 5916 5916 5916 5915 5915 5914 5914 5913 5912 5911 5910 5910 5909 5908 5907 5906 5906 5905 5905 5904 5904 5903 5903 5902 5902
5927 5928 5930 5930 5929 5928 5928 5928 5927 5927 5926 5925 5924 5923 5922 5921 5920 5919 5918 5917 5916 5915 5915 5914 5914 5914 5914 5913 5913 5912 5911 5910 5909 5908 5908 5907 5906 5905 5905 5904 5903 5903 5902 5902 5901 5901 5900 5900 5900
5926 5926 5928 5928 5926 5925 5925 5925 5926 5925 5924 5924 5923 5921 5920 5919 5918 5917 5916 5915 5914 5914 5913 5912 5912 5912 5911 5911 5910 5909 5908 5907 5906 5905 5904 5903 5903 5902 5902 5901 5900 5900 5899 5899 5899 5898 5898 5898 5898
5923 5924 5924 5924 5923 5923 5922 5923 5923 5923 5923 5922 5921 5920 5918 5917 5916 5915 5914 5913 5912 5912 5911 5910 5910 5909 5908 5907 5907 5906 5905 5904 5902 5901 5900 5899 5898 5898 5897 5897 5896 5896 5895 5895 5895 5894 5894 5894 5894
5919 5920 5920 5920 5920 5920 5919 5919 5919 5920 5920 5919 5918 5917 5916 5915 5913 5913 5912 5911 5910 5909 5909 5908 5907 5906 5905 5904 5903 5902 5900 5899 5898 5897 5895 5894 5893 5892 5891 5891 5891 5890 5890 5890 5890 5890 5890 5890 5890
5914 5917 5916 5916 5916 5916 5915 5915 5915 5916 5917 5916 5915 5915 5913 5912 5911 5910 5909 5908 5908 5907 5906 5905 5904 5903 5902 5901 5899 5897 5896 5894 5893 5891 5890 5888 5887 5886 5885 5885 5884 5884 5884 5884 5884 5885 5885 5885 5885
5910 5911 5911 5910 5911 5911 5911 5911 5912 5913 5913 5912 5912 5911 5910 5909 5908 5907 5906 5905 5905 5904 5903 5902 5901 5899 5898 5896 5894 5893 5891 5889 5887 5886 5884 5882 5881 5879 5878 5878 5877 5877 5877 5877 5878 5878 5878 5879 5879
5905 5906 5905 5905 5905 5906 5906 5907 5907 5909 5909 5908 5908 5908 5908 5907 5905 5904 5903 5903 5902 5901 5900 5898 5897 5895 5893 5892 5890 5888 5886 5884 5882 5879 5878 5876 5874 5872 5871 5870 5869 5869 5869 5869 5870 5871 5872 5872 5873
5899 5900 5899 5899 5899 5900 5901 5902 5902 5903 5904 5904 5904 5904 5904 5903 5902 5901 5900 5899 5898 5897 5895 5894 5892 5890 5889 5887 5885 5883 5880 5878 5875 5873 5870 5868 5867 5865 5863 5862 5861 5861 5861 5862 5862 5864 5865 5865 5866
5892 5893 5893 5894 5894 5895 5895 5896 5897 5898 5899 5899 5899 5899 5899 5899 5898 5897 5896 5895 5894 5892 5891 5889 5887 5885 5883 5881 5878 5877 5874 5871 5868 5866 5863 5861 5859 5857 5855 5854 5852 5852 5852 5853 5854 5856 5857 5858 5859
5886 5887 5887 5888 5889 5889 5890 5891 5892 5892 5893 5894 5894 5894 5894 5893 5892 5892 5891 5890 5888 5887 5885 5883 5881 5878 5876 5874 5872 5870 5867 5864 5861 5859 5856 5853 5850 5848 5846 5844 5843 5843 5843 5844 5846 5847 5849 5851 5853
5881 5882 5882 5883 5884 5884 5886 5886 5886 5887 5887 5887 5888 5888 5887 5887 5886 5886 5885 5884 5882 5880 5879 5877 5874 5871 5869 5867 5865 5862 5859 5856 5854 5851 5848 5844 5842 5839 5837 5835 5834 5834 5834 5835 5837 5838 5841 5843 5845
5876 5878 5879 5878 5879 5880 5883 5882 5881 5881 5881 5881 5881 5881 5881 5880 5880 5879 5878 5877 5876 5874 5872 5870 5867 5864 5861 5858 5856 5853 5851 5848 5846 5842 5839 5836 5833 5831 5828 5826 5825 5824 5824 5826 5828 5830 5832 5835 5837
5874 5876 5876 5875 5875 5875 5877 5876 5876 5875 5875 5875 5875 5875 5874 5874 5873 5872 5872 5870 5869 5867 5865 5862 5859 5856 5852 5850 5847 5844 5841 5839 5837 5834 5830 5828 5825 5822 5820 5817 5815 5815 5815 5817 5820 5822 5824 5827 5830
5874 5874 5873 5872 5871 5872 5872 5871 5871 5870 5870 5870 5869 5869 5868 5868 5867 5866 5865 5863 5861 5859 5857 5854 5851 5847 5844 5841 5838 5835 5832 5830 5827 5825 5822 5819 5816 5814 5811 5809 5807 5807 5807 5808 5812 5815 5817 5819 5822
5869 5871 5871 5869 5869 5869 5868 5867 5867 5866 5865 5864 5864 5863 5862 5862 5861 5859 5858 5856 5854 5851 5848 5845 5841 5837 5834 5831 5828 5825 5822 5820 5818 5816 5814 5811 5808 5806 5803 5802 5800 5799 5799 5801 5804 5807 5809 5812 5815
5867 5868 5868 5866 5865 5865 5864 5863 5862 5861 5860 5859 5858 5858 5857 5856 5854 5852 5850 5848 5845 5842 5839 5835 5831 5827 5824 5821 5818 5815 5812 5810 5808 5806 5804 5802 5800 5798 5795 5793 5793 5793 5793 5795 5797 5799 5802 5805 5808
5865 5867 5866 5864 5862 5861 5861 5859 5858 5856 5855 5854 5853 5852 5850 5849 5847 5844 5842 5839 5836 5833 5829 5825 5821 5818 5814 5811 5808 5805 5802 5799 5798 5796 5794 5793 5791 5789 5788 5786 5786 5786 5787 5787 5789 5791 5794 5797 5800
5864 5863 5862 5861 5860 5860 5859 5859 5855 5852 5851 5850 5848 5846 5845 5842 5840 5837 5834 5831 5828 5824 5820 5816 5812 5808 5805 5801 5798 5795 5792 5789 5787 5785 5784 5782 5781 5780 5779 5778 5779 5779 5779 5780 5781 5783 5786 5789 5792
5861 5860 5860 5859 5859 5858 5857 5857 5853 5850 5848 5846 5844 5842 5839 5837 5834 5830 5827 5823 5819 5815 5811 5807 5803 5799 5795 5791 5788 5784 5781 5778 5776 5774 5773 5771 5770 5770 5769 5769 5770 5770 5771 5772 5773 5775 5777 5780 5783
5859 5859 5858 5857 5857 5857 5855 5854 5851 5847 5845 5842 5840 5837 5834 5831 5828 5824 5820 5816 5811 5807 5802 5798 5793 5789 5785 5781 5777 5773 5769 5766 5764 5761 5760 5759 5758 5758 5758 5758 5759 5760 5761 5763 5765 5766 5768 5771 5774
5858 5858 5858 5857 5856 5855 5852 5850 5847 5844 5841 5838 5835 5832 5829 5825 5821 5817 5813 5808 5803 5799 5794 5789 5784 5779 5774 5769 5765 5761 5757 5753 5750 5748 5746 5744 5743 5744 5744 5745 5746 5747 5749 5751 5753 5755 5758 5761 5764
5856 5857 5857 5856 5855 5853 5848 5846 5844 5840 5837 5834 5831 5827 5823 5819 5815 5810 5805 5800 5794 5789 5784 5778 5773 5768 5763 5757 5753 5748 5744 5740 5736 5733 5731 5728 5727 5727 5727 5729 5730 5732 5734 5737 5739 5742 5745 5749 5752
5855 5854 5853 5853 5851 5850 5847 5843 5840 5836 5833 5830 5826 5822 5817 5813 5807 5802 5796 5791 5785 5779 5773 5767 5762 5756 5750 5744 5739 5734 5730 5725 5722 5718 5715 5713 5711 5710 5709 5710 5712 5715 5717 5720 5724 5727 5731 5735 5739
5854 5852 5851 5850 5849 5848 5845 5840 5837 5832 5829 5825 5820 5816 5811 5805 5799 5793 5787 5781 5774 5768 5761 5755 5749 5743 5737 5731 5725 5720 5716 5711 5707 5703 5700 5697 5695 5693 5692 5692 5693 5695 5698 5701 5706 5710 5714 5719 5723
5852 5851 5849 5847 5845 5844 5842 5840 5833 5828 5824 5820 5814 5809 5804 5798 5791 5785 5778 5771 5763 5756 5749 5742 5736 5730 5723 5717 5712 5706 5701 5695 5691 5686 5683 5679 5677 5675 5674 5673 5674 5676 5678 5681 5686 5690 5696 5701 5706
5849 5848 5846 5845 5842 5839 5837 5836 5829 5824 5819 5814 5809 5803 5797 5790 5783 5775 5768 5760 5752 5744 5737 5730 5723 5717 5710 5703 5697 5691 5685 5679 5674 5669 5664 5661 5658 5656 5654 5654 5654 5656 5658 5661 5665 5670 5675 5681 5687